COSMOS 24211 29247U 06026A 10228.85769556 .01697974 72747-5 64541-3 0 26232 29247 065.0223 236.2891 0016130 261.1790 098.6582 16.23490505236051
KOSMOS 24211 29247U 06026A 10185.11699757 .00119680 12057-4 36401-3 0 16102 29247 065.0252 035.1839 0018560 272.3177 087.5757 15.91689529229056